Voltar ao catálogo

ONEWEB-0334

AtivoComunicaçõesPO
NORAD 49200·PAYLOAD·🇬🇧 United Kingdom

Lançado Sep 14, 2021 de Baikonur Cosmodrome

Loading…

Próximas Passagens (próximas 24 horas)

TLE

AtualizadoSource: CelesTrak SupGP

Época: Sep 14, 2026, 22:13 UTC

1 49200C 21083Q   26257.92586063  .00003143  00000+0  77392-2 0  2577
2 49200  87.9144 256.5435 0002205  69.3464 359.5234 13.20771072    13

Acompanhe ONEWEB-0334 em tempo real com AllMySat

Download on the App Store